Location: Fontaine
(47.9083°N, 1.1429°W)
Time: 14:09:31
(UTC+00:00)

Daily predictions for brighter satellites

Satellite Brightness Start Highest point End
(mag) Time Altitude Azimuth Time Altitude Azimuth Time Altitude Azimuth
IRS-1C Rocket 4.1 17:12:29 10° SSE 17:17:43 72° ENE 17:22:58 10° NNW
Cosmos 1048 Rocket 4.2 17:12:54 10° NNW 17:18:04 79° WSW 17:23:10 10° SSE
ATLAS CENTAUR R/B 3.7 17:13:50 10° WSW 17:18:47 75° NNW 17:32:54 10° ENE
Cosmos 2237 Rocket 2.3 17:13:34 10° NNW 17:19:06 54° ENE 17:24:36 10° SE
Starlink Q 3.4 17:17:46 10° W 17:20:45 48° NNW 17:23:44 10° ENE
Starlink P 3.4 17:19:27 10° W 17:22:26 47° NNW 17:25:24 10° ENE
Cosmos 1269 Rocket 4.1 17:18:15 10° NNW 17:23:29 55° ENE 17:28:39 10° SE
Starlink U 3.5 17:21:07 10° W 17:24:05 46° NNW 17:27:04 10° ENE
ATLAS CENTAUR R/B 3.0 17:22:40 10° NNW 17:25:25 17° NNE 17:28:02 10° ENE
Starlink B 3.5 17:22:49 10° W 17:25:47 45° NNW 17:28:45 10° ENE
YAOGAN 1 3.8 17:24:01 10° ESE 17:27:16 21° ENE 17:30:33 10° NNE
Cosmos 2333 Rocket 3.2 17:21:46 10° NW 17:27:21 54° WSW 17:32:50 10° S
ATLAS 5 CENTAUR R/B 3.2 17:25:44 10° W 17:29:35 29° NNW 17:33:55 10° NNE
CZ-4 R/B 2.4 17:28:22 10° ESE 17:31:47 27° ENE 17:35:17 10° N
Cosmos 1455 3.5 17:29:24 10° NNE 17:32:18 20° ENE 17:35:09 10° ESE
USA 267 3.4 17:28:22 10° NE 17:34:55 79° NNW 17:41:28 10° WSW
Starlink D 3.6 17:32:29 10° W 17:35:26 41° NNW 17:38:16 11° ENE
Starlink S 3.6 17:34:15 10° W 17:37:12 41° NNW 17:39:57 11° NE
Cosmos 2184 Rocket 4.3 17:31:28 10° SSW 17:37:38 74° W 17:43:49 10° N
Starlink C 3.7 17:35:58 10° W 17:38:55 40° NNW 17:41:36 12° NE
Starlink E 3.7 17:37:46 10° W 17:40:42 40° NNW 17:43:19 12° NE
SL-16 R/B 2.8 17:36:47 10° NNW 17:42:00 35° NE 17:47:10 10° ESE
Cosmos 1271 Rocket 3.6 17:38:47 10° SSW 17:42:25 50° WNW 17:46:07 10° N
Starlink J 3.7 17:39:32 10° W 17:42:29 39° NNW 17:45:02 13° NE
CORIOLIS 4.3 17:38:05 10° SSE 17:43:27 81° WSW 17:48:51 10° NNW
Cosmos 494 Rocket 4.1 17:38:48 10° NNW 17:43:57 83° WSW 17:49:04 10° SSE
Starlink V 3.7 17:41:18 10° W 17:44:14 39° NNW 17:46:43 13° NE
Cosmos 1602 Rocket 3.5 17:39:53 10° S 17:44:16 88° E 17:48:39 10° N
Meteor 1-24 Rocket 4.2 17:40:03 10° SSW 17:45:18 61° WNW 17:50:42 10° N
Starlink H 3.8 17:43:06 10° W 17:46:02 38° NNW 17:48:26 14° NE
Cosmos 2154 Rocket 4.0 17:39:55 10° S 17:46:12 84° E 17:52:28 10° N
Cosmos 44 4.3 17:44:09 10° SSE 17:47:49 24° ESE 17:50:34 14° ENE
Starlink F 3.8 17:44:54 10° W 17:47:50 38° NNW 17:50:09 14° NE
Starlink G 3.8 17:46:42 10° W 17:49:37 37° NNW 17:51:52 15° NE
Cosmos 2219 3.2 17:44:17 10° SSW 17:49:48 64° ESE 17:55:24 10° NNE
Starlink L 3.8 17:48:29 10° W 17:51:24 37° NNW 17:53:35 15° NE
Starlink A 3.8 17:50:17 10° W 17:53:13 36° NNW 17:55:19 16° NE
NOSS 2-1 (C) 4.3 17:48:47 10° NW 17:53:58 75° NE 18:01:14 10° SE
Ariane Rocket 4.2 17:50:33 10° ESE 17:54:11 20° ENE 17:57:48 10° NNE
Starlink R 3.9 17:52:06 10° W 17:55:02 36° NNW 17:57:03 17° NE
COSMO-SKYMED 1 2.9 17:52:07 10° NNE 17:56:20 46° E 18:00:30 10° S
Cosmos 1340 Rocket 3.3 17:52:38 10° NNW 17:56:34 63° W 18:00:30 10° S
Starlink K 3.9 17:53:53 10° W 17:56:48 35° NNW 17:58:46 17° NE
Cosmos 1953 Rocket 4.3 17:53:00 10° SSE 17:57:01 33° E 18:01:04 10° NNE
SL-14 R/B 4.2 17:53:09 10° SSW 17:57:02 50° WNW 18:00:55 10° N
Meteor 1-21 Rocket 4.3 17:51:52 10° S 17:57:20 56° E 18:02:55 10° NNE
NOSS 2-1 (D) 4.3 17:52:36 10° NW 17:57:48 79° NE 18:05:08 10° SE
Starlink M 3.9 17:55:39 10° W 17:58:34 35° N 18:00:27 18° NE
Cosmos 2297 Rocket 2.3 17:54:47 10° S 18:00:16 55° ESE 18:05:48 10° NE
Cosmos 1758 Rocket 3.5 17:57:25 10° S 18:01:39 59° E 18:05:55 10° NNE
Cosmos 1980 4.0 17:56:16 10° NNW 18:01:58 73° WSW 18:07:37 10° SSE
Cosmos 724 4.3 17:56:36 10° SSW 18:02:34 75° ESE 18:08:14 11° NE
Cosmos 2219 Rocket 4.5 18:02:47 10° NW 18:07:34 28° WSW 18:12:18 10° SSW
FengYun 1-2 T 4.3 18:02:56 10° SSE 18:08:35 86° ENE 18:14:17 10° NNW
Cosmos 2366 rocket 4.3 18:04:25 10° SSE 18:10:16 45° E 18:16:12 10° NNE
USA 234 4.1 18:04:09 10° SSE 18:10:29 52° SW 18:16:51 10° WNW
Cosmos 2227 Rocket 2.2 18:07:22 10° SSW 18:12:55 62° ESE 18:18:20 11° NNE
ISS -3.0 18:10:56 10° SW 18:14:06 39° SSE 18:15:23 27° E
NOAA 11 4.2 18:09:51 10° SSE 18:15:12 57° ENE 18:20:35 10° N
Cosmos 962 Rocket 4.5 18:10:27 10° S 18:16:34 90° W 18:22:47 10° N
Meteor 2-10 Rocket 3.4 18:13:10 10° N 18:18:31 67° ENE 18:23:36 10° SSE
SKYMED 3 4.5 18:15:53 10° NNE 18:20:15 80° ESE 18:24:36 10° S
H-2A R/B 3.4 18:21:12 19° NE 18:21:12 19° NE 18:24:02 10° NNE
Okean-O 3.5 18:17:27 10° S 18:21:47 53° W 18:26:09 10° NNW
Starlink AS 4.0 18:19:09 10° WNW 18:21:48 29° N 18:22:29 26° NNE
Starlink BA 4.0 18:19:24 10° WNW 18:22:02 29° N 18:22:43 26° NNE
Starlink AU 4.0 18:19:37 10° WNW 18:22:15 29° N 18:22:55 26° NNE
Starlink AT 4.0 18:19:51 10° WNW 18:22:30 29° N 18:23:09 26° NNE
Starlink BB 4.0 18:20:03 10° WNW 18:22:40 29° N 18:23:20 26° NNE
Starlink BC 4.0 18:20:19 10° WNW 18:22:57 29° N 18:23:36 26° NNE
Starlink BK 4.0 18:20:32 10° WNW 18:23:10 29° N 18:23:47 26° NNE
Cosmos 2251 Rocket 3.6 18:18:00 10° NNW 18:23:12 53° ENE 18:28:24 10° SE
Starlink AY 4.0 18:20:46 10° WNW 18:23:24 29° N 18:24:01 26° NNE
Starlink AW 4.0 18:21:00 10° WNW 18:23:38 29° N 18:24:15 27° NNE
Starlink AQ 4.0 18:21:04 10° WNW 18:23:43 29° N 18:24:21 27° NNE
Starlink BJ 4.0 18:21:13 10° WNW 18:23:52 29° N 18:24:27 27° NNE
Starlink AV 4.0 18:21:26 10° WNW 18:24:04 29° N 18:24:40 27° NNE
Starlink BD 4.0 18:21:40 10° WNW 18:24:18 29° N 18:24:53 27° NNE
Starlink BE 4.0 18:21:52 10° WNW 18:24:31 29° N 18:25:06 27° NNE
Starlink BM 3.9 18:22:07 10° WNW 18:24:45 29° N 18:25:19 27° NNE
Starlink AX 3.9 18:22:21 10° WNW 18:24:58 29° N 18:25:32 27° NNE
Starlink BH 3.9 18:22:35 10° WNW 18:25:13 29° N 18:25:45 27° NNE
Starlink AZ 3.9 18:22:47 10° WNW 18:25:26 29° N 18:25:57 27° NNE
Starlink BG 3.9 18:23:02 10° WNW 18:25:40 29° N 18:26:11 27° NNE
Cosmos 1825 Rocket 3.5 18:21:32 10° S 18:25:53 88° W 18:30:15 10° N
Starlink BF 3.9 18:23:15 10° WNW 18:25:53 29° N 18:26:24 27° NNE
Starlink BL 4.0 18:23:27 10° WNW 18:26:06 29° N 18:26:38 27° NNE
Starlink AH 3.9 18:23:43 10° WNW 18:26:20 29° N 18:26:50 27° NNE
Starlink AC 3.9 18:23:56 10° WNW 18:26:34 29° N 18:27:03 27° NNE
Starlink X 3.9 18:24:09 10° WNW 18:26:47 29° N 18:27:15 27° NNE
Starlink AE 4.0 18:24:20 10° WNW 18:27:00 29° N 18:27:30 27° NNE
Starlink Z 3.9 18:24:37 10° WNW 18:27:15 29° N 18:27:42 27° NNE
Starlink AK 3.9 18:24:47 10° WNW 18:27:25 29° N 18:27:51 27° NNE
Starlink AL 3.9 18:25:05 10° WNW 18:27:42 29° N 18:28:08 27° NNE
Starlink AD 3.9 18:25:17 10° WNW 18:27:54 29° N 18:28:20 27° NNE
Cosmos 1943 4.3 18:23:42 10° N 18:28:05 22° NE 18:28:39 22° NE
Starlink Y 3.9 18:25:45 10° WNW 18:28:22 29° N 18:28:47 28° NNE
Starlink AG 3.9 18:25:59 10° WNW 18:28:37 29° N 18:29:00 28° NNE
Starlink W 4.0 18:26:09 10° WNW 18:28:49 29° N 18:29:13 28° NNE
Starlink AJ 4.0 18:26:26 10° WNW 18:29:03 29° N 18:29:26 28° N
Starlink AM 4.0 18:26:49 10° WNW 18:29:27 29° N 18:29:48 28° N
Starlink AP 4.0 18:27:06 10° WNW 18:29:43 29° N 18:30:04 28° N
Starlink AA 4.0 18:27:15 10° WNW 18:29:52 29° N 18:30:13 28° N
Starlink AF 4.0 18:27:33 10° WNW 18:30:10 29° N 18:30:30 28° N
Starlink AB 4.0 18:27:47 10° WNW 18:30:24 29° N 18:30:43 28° N
Starlink AN 4.0 18:28:00 10° WNW 18:30:37 29° N 18:30:56 28° N
USA 32 4.4 18:26:50 10° SSW 18:32:02 68° W 18:37:16 10° N
Cosmos 1939 Rocket 2.7 18:29:04 10° SSE 18:32:56 65° ENE 18:36:54 10° N
Starlink AR 4.1 18:31:57 10° WNW 18:33:52 24° NNW 18:33:52 24° NNW
Cosmos 1703 3.2 18:30:41 10° S 18:34:35 60° E 18:37:13 20° NNE
Cosmos 1727 Rocket 3.9 18:29:52 10° N 18:36:00 59° ENE 18:42:04 10° SSE
Shenzhou-11 Module 3.6 18:35:14 10° SW 18:37:13 21° S 18:37:13 21° S
USA 116 3.0 18:40:25 62° NE 18:40:46 70° ESE 18:43:51 10° S
ADEOS Rocket 3.5 18:35:08 10° NNE 18:41:28 45° E 18:48:24 10° S
ERBS 2.9 18:39:48 10° WSW 18:43:03 49° NNW 18:43:43 41° N
SKYMED 2 4.1 18:40:07 10° N 18:44:24 59° WNW 18:48:40 10° SSW
CSL-04 Debris 4.2 18:39:34 10° SSE 18:44:57 81° WSW 18:50:25 10° NNW
SL-8 Rocket 4.1 18:39:14 10° S 18:45:33 83° W 18:51:52 10° N
Cosmos 2221 4.0 18:45:59 10° N 18:47:43 22° NNE 18:47:43 22° NNE
Starlink T 4.4 18:50:36 10° WNW 18:52:48 27° NNW 18:52:48 27° NNW
Starlink N 4.4 18:52:10 10° WNW 18:54:19 27° NNW 18:54:19 27° NNW
CZ-2C R/B 4.3 18:58:05 27° NE 18:58:05 27° NE 19:01:27 10° N
Cosmos-2242 4.4 18:52:40 10° NNW 18:56:43 40° W 19:00:43 10° SSW
Starlink Q 4.5 18:54:02 10° WNW 18:56:06 26° NNW 18:56:06 26° NNW
Cosmos 2237 Rocket 4.3 18:58:12 10° NW 19:02:50 27° WSW 19:07:27 10° SSW
YAOGAN 1 3.6 18:58:56 10° S 19:03:05 46° W 19:07:17 10° NNW
CZ-2D R/B 3.9 18:59:43 10° S 19:03:29 56° W 19:07:17 10° NNW
ATLAS CENTAUR R/B 1.2 19:00:58 10° NW 19:04:45 71° N 19:04:45 71° N
CZ-4 R/B 3.3 19:03:03 10° SSW 19:06:42 32° W 19:10:27 10° NNW
SL-8 R/B 3.6 19:02:57 10° WSW 19:07:45 70° SSE 19:08:12 64° ESE
Cosmos 1455 3.9 19:04:33 10° NNW 19:08:02 33° W 19:11:27 10° SSW
CSL-04 Rocket 4.5 19:04:09 10° S 19:09:30 53° W 19:14:58 10° NNW
Atlas Centaur 2 4.3 19:08:39 10° S 19:10:08 11° SSE 19:10:43 11° SSE
Cosmos 407 Rocket 4.4 19:05:33 10° N 19:09:02 32° NNE 19:09:02 32° NNE
ATLAS 5 CENTAUR R/B 3.6 19:09:20 10° NW 19:13:49 57° NE 19:18:33 34° ESE
ATLAS 5 CENTAUR R/B 4.0 19:13:10 10° NW 19:15:57 15° N 19:17:00 14° N
SJ-11-01 4.2 19:17:16 74° NE 19:17:16 74° NE 19:21:48 10° N
USA 267 3.9 19:14:55 30° NE 19:17:31 44° NNW 19:23:38 10° W
Cosmos 1821 Rocket 4.0 19:12:23 10° S 19:18:37 60° E 19:24:49 10° NNE
Meteor 1-27 4.2 19:18:49 10° NNW 19:24:24 80° W 19:29:57 10° S
SL-16 R/B 3.2 19:20:52 10° NW 19:26:15 45° WSW 19:31:35 10° S
Meteor 1-11 4.3 19:21:55 10° SSW 19:27:31 72° WNW 19:32:51 11° N
Cosmos 44 3.7 19:24:18 10° SW 19:28:45 51° NW 19:29:01 50° NNW
Cosmos 1356 Rocket 4.4 19:25:08 10° NNW 19:29:00 45° W 19:32:54 10° SSW
Ariane Rocket 3.2 19:27:36 10° S 19:32:38 68° WSW 19:37:43 10° NNW
Meteor 2-2 Rocket 4.2 19:27:42 10° N 19:33:47 86° E 19:35:48 45° SSE
Cosmos 2082 4.3 19:30:01 10° SW 19:35:31 54° WNW 19:37:54 32° N
Cosmos 1842 Rocket 4.3 19:33:34 10° NNW 19:37:55 52° W 19:39:07 40° SW
Cosmos 1603 3.8 19:33:16 10° NNW 19:38:06 62° N 19:38:06 62° N
Cosmos 2297 Rocket 3.8 19:39:41 10° WSW 19:44:38 30° NW 19:47:57 18° N
ISS -0.7 19:47:30 10° W 19:48:19 16° W 19:48:19 16° W
Cosmos 2227 Rocket 4.0 19:52:38 10° WSW 19:57:25 27° NW 20:00:11 19° N
H-2A R/B 3.4 20:01:48 31° NNW 20:01:48 31° NNW 20:04:29 10° NNW
ARGOS 4.3 20:02:33 35° NNW 20:02:33 35° NNW 20:05:38 10° NNW
Cosmos 1943 4.3 20:07:10 10° NNW 20:10:30 37° NNW 20:10:30 37° NNW
FALCON 9 R/B 4.5 20:09:56 10° SW 20:16:49 20° S 20:16:49 20° S
ADEOS Rocket 4.3 20:20:52 10° N 20:26:55 41° WNW 20:33:32 10° SW
BREEZE-M DEB (TANK) 4.4 20:10:16 10° WNW 20:34:25 76° SSW 20:34:25 76° SSW
